Fairhope, Alabama Weather Center

Moon Phase Calendar



Online Cameras

 


      

Current Conditions in Fairhope
2/28/2024 8:53:59 PM

59°F
Feels Like 57
Clear
Humidity
62%
Pressure
30.21"
Wind
11 mph (NE)
Dew Point
46°F
UV Index
0/10 (Low)
Visibility
6 mi

Hourly Forecast

Date & Time Wed, Feb 28
8:00 PM
Wed, Feb 28
9:00 PM
Wed, Feb 28
10:00 PM
Wed, Feb 28
11:00 PM
Thu, Feb 29
12:00 AM
Thu, Feb 29
1:00 AM
Thu, Feb 29
2:00 AM
Thu, Feb 29
3:00 AM
Thu, Feb 29
4:00 AM
Thu, Feb 29
5:00 AM
Thu, Feb 29
6:00 AM
Thu, Feb 29
7:00 AM
Thu, Feb 29
8:00 AM
Thu, Feb 29
9:00 AM
Thu, Feb 29
10:00 AM
Thu, Feb 29
11:00 AM
Thu, Feb 29
12:00 PM
Thu, Feb 29
1:00 PM
Thu, Feb 29
2:00 PM
Thu, Feb 29
3:00 PM
Thu, Feb 29
4:00 PM
Thu, Feb 29
5:00 PM
Thu, Feb 29
6:00 PM
Thu, Feb 29
7:00 PM
Thu, Feb 29
8:00 PM
Thu, Feb 29
9:00 PM
Thu, Feb 29
10:00 PM
Thu, Feb 29
11:00 PM
Fri, Mar 1
12:00 AM
Fri, Mar 1
1:00 AM
Fri, Mar 1
2:00 AM
Fri, Mar 1
3:00 AM
Fri, Mar 1
4:00 AM
Fri, Mar 1
5:00 AM
Fri, Mar 1
6:00 AM
Fri, Mar 1
7:00 AM
Fri, Mar 1
8:00 AM
Fri, Mar 1
9:00 AM
Fri, Mar 1
10:00 AM
Fri, Mar 1
11:00 AM
Fri, Mar 1
12:00 PM
Fri, Mar 1
1:00 PM
Fri, Mar 1
2:00 PM
Fri, Mar 1
3:00 PM
Fri, Mar 1
4:00 PM
Fri, Mar 1
5:00 PM
Fri, Mar 1
6:00 PM
Fri, Mar 1
7:00 PM
Condition
Clouds

Clear

Clouds

Clouds

Clouds

Clouds

Clouds

Clouds

Clouds

Clouds

Clouds

Clouds

Clouds

Clouds

Clouds

Clouds

Clouds

Clouds

Clouds

Clouds

Clouds

Clouds

Clouds

Clouds

Clouds

Clouds

Clouds

Clouds

Clouds

Clouds

Rain

Rain

Rain

Rain

Rain

Rain

Rain

Rain

Rain

Rain

Rain

Rain

Rain

Rain

Rain

Rain

Rain

Clouds
Temperature 59°F59°F58°F57°F56°F54°F52°F51°F50°F50°F50°F50°F50°F51°F53°F55°F56°F59°F61°F62°F62°F60°F58°F58°F58°F57°F57°F57°F57°F56°F56°F56°F58°F62°F62°F62°F62°F63°F64°F65°F65°F66°F66°F65°F65°F65°F65°F65°F
Feels Like 57°F57°F57°F56°F54°F52°F49°F48°F47°F47°F47°F44°F45°F47°F50°F52°F53°F56°F58°F59°F59°F58°F56°F55°F56°F55°F55°F55°F55°F55°F54°F55°F58°F62°F62°F62°F63°F64°F65°F66°F66°F66°F66°F66°F66°F66°F65°F65°F
Cloudiness 20%0%20%40%60%80%100%100%100%100%100%100%100%100%100%100%100%100%100%100%100%100%100%100%100%100%100%100%100%100%100%100%100%100%100%100%100%100%100%100%100%100%100%100%100%100%100%100%
Visibility 6 mi6 mi6 mi6 mi6 mi6 mi6 mi6 mi6 mi6 mi6 mi6 mi6 mi6 mi6 mi6 mi6 mi6 mi6 mi6 mi6 mi6 mi6 mi6 mi6 mi6 mi6 mi6 mi6 mi6 mi6 mi6 mi6 mi6 mi6 mi6 mi6 mi6 mi6 mi6 mi6 mi6 mi6 mi6 mi6 mi6 mi6 mi6 mi
Precipitation 8%4%0%0%0%0%0%0%0%0%0%0%0%0%0%0%0%0%0%0%0%0%0%0%0%0%0%0%0%8%24%43%67%79%79%92%98%98%100%100%100%98%100%100%100%100%100%70%
Humidity 65%62%62%60%59%54%51%51%48%42%38%38%39%39%36%34%34%33%32%33%38%43%44%45%45%47%50%52%57%63%66%72%86%92%93%94%95%94%94%93%94%94%95%96%97%96%97%98%
Dew Point 47°F46°F45°F44°F42°F38°F34°F33°F31°F28°F26°F25°F26°F27°F27°F27°F28°F30°F31°F33°F36°F38°F37°F36°F37°F38°F39°F40°F42°F44°F45°F47°F54°F60°F60°F60°F61°F62°F62°F63°F63°F64°F64°F64°F64°F64°F64°F64°F
Pressure 30.21"30.21"30.21"30.21"30.24"30.27"30.27"30.27"30.27"30.27"30.3"30.3"30.33"30.33"30.33"30.33"30.3"30.27"30.24"30.24"30.24"30.21"30.24"30.24"30.24"30.27"30.24"30.24"30.18"30.21"30.18"30.15"30.15"30.12"30.12"30.15"30.12"30.15"30.15"30.12"30.12"30.09"30.06"30.06"30.06"30.06"30.06"30.09"
Wind Speed 19.7 mph19.2 mph18.5 mph17.4 mph16.4 mph16.9 mph17.5 mph17.1 mph17.6 mph17.8 mph17 mph17 mph15 mph15.3 mph13.7 mph13.1 mph11.7 mph9.3 mph7.3 mph8.2 mph8.8 mph9.3 mph7.4 mph6.5 mph7 mph5.4 mph5.4 mph7.5 mph7.9 mph6.7 mph8 mph11.3 mph12.1 mph17.9 mph18.2 mph17.7 mph16.9 mph14.4 mph15.7 mph16.1 mph16 mph14 mph14.6 mph12.3 mph10.4 mph7.5 mph5.1 mph5.4 mph
Wind
Direction
20°
NNE
25°
NNE
31°
NNE
29°
NNE
30°
NNE
30°
NNE
30°
NNE
32°
NNE
36°
NE
39°
NE
35°
NE
42°
NE
44°
NE
41°
NE
46°
NE
48°
NE
63°
ENE
71°
ENE
65°
ENE
54°
NE
60°
ENE
78°
ENE
75°
ENE
60°
ENE
70°
ENE
42°
NE
67°
ENE
86°
E
77°
ENE
25°
NNE
41°
NE
78°
ENE
93°
E
121°
ESE
128°
SE
134°
SE
133°
SE
134°
SE
134°
SE
140°
SE
150°
SSE
156°
SSE
159°
SSE
166°
SSE
168°
SSE
189°
S
179°
S
186°
S

Daily Forecast

Date High Low Precip. Humidity
Today
Feb 28

Rain
73 °F
57 °F
34%
76%
Thursday
Feb 29

Clouds
62 °F
50 °F
0%
34%
Friday
Mar 1

Rain
66 °F
56 °F
100%
94%
Saturday
Mar 2

Rain
71 °F
63 °F
88%
80%
Sunday
Mar 3

Rain
73 °F
62 °F
37%
70%
Monday
Mar 4

Rain
72 °F
64 °F
66%
71%
Tuesday
Mar 5

Rain
66 °F
63 °F
100%
95%
Wednesday
Mar 6

Rain
74 °F
62 °F
27%
71%
Thursday
Mar 7

Clouds
75 °F
61 °F
0%
65%
Friday
Mar 8

Rain
73 °F
66 °F
100%
90%
Saturday
Mar 9

Rain
76 °F
66 °F
63%
81%
Sunday
Mar 10

Clouds
73 °F
59 °F
0%
52%
Monday
Mar 11

Rain
64 °F
59 °F
100%
84%
Tuesday
Mar 12

Rain
68 °F
59 °F
97%
76%
Wednesday
Mar 13

Rain
68 °F
66 °F
100%
88%
Thursday
Mar 14

Rain
68 °F
66 °F
82%
92%

Temperature 8-14 Day Outlook



Precipitation 8-14 Day Outlook




Quick Links
Fairhope, Alabama News
Fairhope, Alabama Photos
Fairhope, Alabama Videos




About Us
Contact Us
Site Map
Search Site
Advertise With Us
   
Fairhope.CoastalTown.com
THE FAIRHOPE, ALABAMA WEBSITE

Copyright 2024, Coastal Town
Privacy    |    Legal